Showing default

LEMUR-2 CALLUM-K-J, 67366

Orbit data source: Space-Track

LEMUR-2 CALLUM-K-J, 67366 is a payload satellite owned by Spire/Lux (US) in SSO that was launched on Sun, 11 Jan 2026 UTC via an FALCON 9 launch vehicle from the Air Force Western Test Range (AFWTR). Payload-class satellites include a variety of spacecraft equipped with specific instruments for various scientific and technological missions. These include communications satellites like Starlink; space stations such as the ISS; scientific satellites like the Hubble; Earth observation satellites from companies like Planet Labs, Umbra, and HawkEye 360; GPS; miniature CubeSats for education and research; and military/defense satellites.

Loading next visibility...
Identifier
67366, 2026-004D
Orbit
SSO
Country
Flag of USUS
Related business
Manufacturer
Spire/Glasgow
Mission
Operational Commercial Com/MetRO
Bus & Motor
CUBESAT 3U, Unknown motor
Mass
4.6 kg wet, 4.6 kg dry
Launch date (UTC)
2026-01-11 (8 months ago)
Launch vehicle
FALCON 9
Launch site
Air Force Western Test Range (AFWTR)
Object type
Payload
Rocket body
Debris
Shape & HBR
Box + 2 Pan, 0.3 m
Radar Cross Section
0.054 m², Medium (>0.1 m² and < 1m²)

Expand to show TLE details & history
Last TLE update: 19 hours ago

TLE from 19 hours ago
0 LEMUR-2 CALLUM-K-J
1 67366U 26004D   26263.98585922  .00002155  00000-0  23535-3 0  9991
2 67366  97.8081 261.1434 0008687 169.2869 190.8535 14.88905170 37547
Epoch: 2026-09-20T23:39Z
TLE epoch observation values (Epoch: 2026-09-20T23:39:38.236Z)
Latitude
-0°
Longitude
-93.6381°
Altitude
610.347 km
Speed
7.551 km/s
True Right ascension
17h 24m 34s
True Declination
0° 00' 00"
Sunlit
Object was in daylight at epoch
Visualization orbit readout
Latitude
Unknown
Longitude
Unknown
Altitude
Unknown
Speed
Unknown
Apparent Right ascension
Unknown
Apparent Declination
Unknown
Sunlit
N/A
Visualization observer readout
Local Sidereal Time
11:31:26
Azimuth
Unknown
Elevation
Unknown
Doppler factor
Unknown
Orbital elements
Apogee altitude
604.44 km
Perigee altitude
592.319 km
Semi-major axis
6,976.517 km
Eccentricity
0.00087
Inclination
97.8081°
RAAN
261.1434°
Arg. of periapsis
169.2869°
True anomaly
190.83478°
Mean anomaly
190.8535°
Eccentric anomaly
190.84414°
Mean motion
3.72465 °/min
Orbital period
96.65 mins
BSTAR
0.00023535
Loading maneuver chart data...
Computing Atmospheric mass density...
Loading historical data...
Loading historical data...
Loading historical data...
Loading historical data...
Loading historical data...
Loading historical data...
Loading historical data...

Documentation

Showing up to 5 results
|